Location: Balete No 1
(14.1835°N, 120.9740°E)
Time: 21:53:45
(UTC+00:00)

Daily predictions for brighter satellites

Satellite Brightness Start Highest point End
(mag) Time Altitude Azimuth Time Altitude Azimuth Time Altitude Azimuth
Resurs 01 Rocket 4.1 12:05:05 10° SSW 12:08:16 20° W 12:11:28 10° NW
Centaur D-1A AC-31 4.1 12:00:46 10° W 12:08:24 19° SW 12:11:49 10° S
Maqsat-H 4.3 12:08:38 10° SSW 12:08:58 11° SSW 12:08:58 11° SSW
Cosmos 2123 Rocket 4.4 12:09:51 10° SSW 12:15:34 59° WSW 12:15:34 59° WSW
USA 59 Rocket 2.9 12:38:42 10° WNW 12:43:09 25° WSW 12:48:54 10° SSW
H-10 deb 4.2 19:38:53 47° SSE 19:38:53 47° SSE 19:56:04 10° E
SL-16 R/B 3.6 19:39:49 10° SSE 19:44:04 41° ESE 19:44:04 41° ESE
Ariane H10+ 4.0 19:49:02 40° S 19:49:02 40° S 19:55:07 10° SE
USA 215 4.1 19:51:09 10° ESE 19:57:13 41° NE 19:58:01 40° NNE
ATLAS CENTAUR Rocket 3.9 20:14:36 38° N 20:16:50 46° NNE 20:49:46 10° E
ATLAS CENTAUR Rocket 3.9 20:14:36 38° N 20:16:50 46° NNE 20:49:45 10° E
ATLAS CENTAUR Rocket 3.9 20:14:37 38° N 20:16:50 46° NNE 20:49:45 10° E
Cosmos 2074 Rocket 4.0 20:19:06 10° S 20:25:23 81° E 20:31:40 10° N
Meteor 1-23 Rocket 4.0 20:29:32 84° WNW 20:29:39 85° W 20:35:19 10° S
Cosmos 1833 Rocket 2.5 20:32:48 75° NNW 20:33:18 88° WSW 20:38:54 10° SSE
NOSS 3-2 (A) 3.7 20:28:56 10° S 20:33:23 46° ESE 20:37:59 10° NE
IRS-1D 4.1 20:28:44 10° NNE 20:33:54 57° ESE 20:39:00 10° S
Okean 2 3.8 20:43:15 48° NE 20:43:56 56° E 20:47:42 10° SSE
CENTAUR R/B 4.2 20:48:27 12° N 20:48:27 12° N 20:49:01 10° N
Cosmos 1295 Rocket 4.5 20:38:40 10° SSW 20:44:51 57° W 20:51:02 10° N
Meteor 1-21 4.2 20:46:10 50° NW 20:47:20 61° W 20:53:00 10° S
EPKM 3.5 20:49:10 25° SE 20:49:10 25° SE 20:50:11 10° SE
NOAA 12 4.0 20:44:29 10° NNE 20:49:44 89° ESE 20:54:59 10° SSW
Cosmos 1992 Rocket 3.8 20:50:18 45° NNW 20:51:54 75° WSW 20:57:05 10° S
BREEZE-M DEB (TANK) 3.7 20:54:40 41° NNW 20:55:50 67° NE 21:06:22 10° SE
CCE 1 Rocket 4.4 21:07:00 30° WSW 21:08:07 36° SSW 21:12:56 10° SE
GPS 2-15 Rocket1 4.4 21:05:22 14° SW 21:08:55 37° SSE 21:13:20 10° E
USA 32 4.0 21:03:47 10° S 21:09:01 89° W 21:14:15 10° N
Cosmos 2154 Rocket 4.3 21:06:18 10° SSW 21:12:12 42° W 21:18:04 10° NNW
NOSS 2-2 (D) 4.3 21:17:31 29° WNW 21:17:31 29° WNW 21:20:35 10° N
ARIANE 6 FM1 Upper Stage 3.8 21:21:12 23° WSW 21:21:32 23° WSW 21:24:50 10° SSW
Okean 3 3.2 21:18:52 11° NNW 21:22:41 61° W 21:26:37 10° S
Cosmos 2369 Rocket 2.1 21:17:14 10° SSW 21:22:51 77° WNW 21:28:32 10° NNE
Palapa B4 Rocket 3.5 21:25:34 24° NW 21:27:11 36° N 21:30:45 10° ENE
SL-16 R/B 4.1 21:26:24 10° SW 21:29:09 14° WSW 21:29:09 14° WSW
SJ 16-02 1.5 21:26:26 10° SSW 21:30:29 44° WNW 21:34:31 10° N
Cosmos 1633 Rocket 2.9 21:27:22 10° SSW 21:31:39 65° W 21:35:57 10° N
Cosmos 371 Rocket 3.5 21:29:06 10° SSW 21:33:42 47° WNW 21:38:19 10° N
GPS 2-12 Rocket1 2.9 21:34:54 18° WNW 21:37:57 70° NNE 21:42:14 10° E
ASC 2 Rocket 4.3 21:33:50 15° NW 21:38:13 36° N 21:42:26 10° ENE
USA 215 4.1 21:34:19 10° S 21:40:01 32° SW 21:45:23 12° WNW
FALCON 9 R/B 0.8 21:38:09 10° SW 21:41:18 58° SSE 21:43:29 10° ENE
Cosmos 2341 Rocket 4.0 21:35:33 10° S 21:41:55 84° W 21:48:19 10° N
Meteor 1-22 Rocket 4.5 21:37:32 10° SSW 21:43:28 55° W 21:49:20 10° N
SeaSat 1 3.1 21:38:54 10° NNE 21:43:42 59° ESE 21:48:29 10° S
Atlas Centaur 2 4.0 21:41:00 10° NNW 21:44:29 18° NNE 21:48:28 10° ENE
Cosmos 2297 3.9 21:41:41 10° SW 21:47:03 45° WNW 21:52:24 10° N
Cosmos 1707 Rocket 4.1 21:42:48 10° N 21:47:06 63° E 21:51:26 10° SSE
Cosmos 1666 Rocket 4.3 21:43:44 10° SW 21:47:29 29° W 21:51:16 10° NNW
IGS 5A 3.5 21:45:19 10° N 21:49:08 49° WNW 21:52:57 10° SSW
SL-8 Rocket 4.0 21:43:29 10° SSW 21:49:45 69° W 21:55:59 10° N
Meteor 1-15 Rocket 4.3 21:46:42 10° SSW 21:52:22 64° W 21:58:09 10° N
Cosmos 1339 Rocket 4.5 21:48:02 10° N 21:54:07 71° W 22:00:19 10° S
Ariane H10+ 4.1 21:50:39 10° WSW 21:55:04 17° SSW 21:58:12 10° SSE
Cosmos 2263 4.4 21:50:15 10° SSW 21:55:49 50° WNW 22:01:23 10° N
CBERS-1 4.0 21:52:25 10° N 21:57:29 72° WNW 22:02:33 10° SSW
Cosmos 864 Rocket 4.5 21:53:21 10° SSW 21:59:24 62° W 22:05:26 10° N
Landsat 7 4.1 21:55:53 10° NNE 22:00:30 72° ESE 22:05:07 10° S
Cosmos 968 Rocket 3.8 21:55:31 10° S 22:00:43 73° ESE 22:05:55 10° NNE
Palapa 6 Rocket 2.6 21:59:00 10° WNW 22:02:44 77° NNE 22:06:30 10° ESE
CZ-2D R/B 4.4 22:00:12 10° NNE 22:03:05 38° E 22:05:58 10° S
Helios 1A Rocket 3.8 22:00:29 10° SSE 22:03:38 41° ENE 22:06:47 10° N
